Time,TemperatureF,DewpointF,PressureIn,WindDirection,WindDirectionDegrees,WindSpeedMPH,WindSpeedGustMPH,Humidity,HourlyPrecipIn,Conditions,Clouds,dailyrainin,SoftwareType,DateUTC
2013-07-23 00:00:00,74.0,-99.9,-100.00,NNE,12,10.0,13.0,-999,-99.99,,,-99.99,,2013-07-23 06:00:00,
2013-07-23 00:22:00,74.0,-99.9,-100.00,NNE,12,10.0,13.0,-999,-99.99,,,-99.99,,2013-07-23 06:22:00,
2013-07-23 00:33:00,74.0,-99.9,-100.00,NNE,12,10.0,13.0,-999,-99.99,,,-99.99,,2013-07-23 06:33:00,
2013-07-23 00:42:00,74.0,-99.9,-100.00,NNE,12,10.0,13.0,-999,-99.99,,,-99.99,,2013-07-23 06:42:00,
2013-07-23 00:52:00,74.0,-99.9,-100.00,NNE,12,10.0,13.0,-999,-99.99,,,-99.99,,2013-07-23 06:52:00,
2013-07-23 01:00:00,72.0,-99.9,-100.00,NNE,30,6.0,9.0,-999,-99.99,,,-99.99,,2013-07-23 07:00:00,
2013-07-23 01:22:00,72.0,-99.9,-100.00,NNE,30,6.0,9.0,-999,-99.99,,,-99.99,,2013-07-23 07:22:00,
2013-07-23 01:33:00,72.0,-99.9,-100.00,NNE,30,6.0,9.0,-999,-99.99,,,-99.99,,2013-07-23 07:33:00,
2013-07-23 01:42:00,72.0,-99.9,-100.00,NNE,30,6.0,9.0,-999,-99.99,,,-99.99,,2013-07-23 07:42:00,
2013-07-23 01:52:00,72.0,-99.9,-100.00,NNE,30,6.0,9.0,-999,-99.99,,,-99.99,,2013-07-23 07:52:00,
2013-07-23 02:00:00,67.0,-99.9,-100.00,West,263,1.0,3.0,-999,-99.99,,,-99.99,,2013-07-23 08:00:00,
2013-07-23 02:22:00,67.0,-99.9,-100.00,West,263,1.0,3.0,-999,-99.99,,,-99.99,,2013-07-23 08:22:00,
2013-07-23 02:33:00,67.0,-99.9,-100.00,West,263,1.0,3.0,-999,-99.99,,,-99.99,,2013-07-23 08:33:00,
2013-07-23 02:43:00,67.0,-99.9,-100.00,West,263,1.0,3.0,-999,-99.99,,,-99.99,,2013-07-23 08:43:00,
2013-07-23 02:52:00,67.0,-99.9,-100.00,West,263,1.0,3.0,-999,-99.99,,,-99.99,,2013-07-23 08:52:00,
2013-07-23 04:00:00,64.0,-99.9,-100.00,SSW,206,8.0,9.0,-999,-99.99,,,-99.99,,2013-07-23 10:00:00,
2013-07-23 04:22:00,64.0,-99.9,-100.00,SSW,206,8.0,9.0,-999,-99.99,,,-99.99,,2013-07-23 10:22:00,
2013-07-23 04:32:00,64.0,-99.9,-100.00,SSW,206,8.0,9.0,-999,-99.99,,,-99.99,,2013-07-23 10:32:00,
2013-07-23 04:44:00,64.0,-99.9,-100.00,SSW,206,8.0,9.0,-999,-99.99,,,-99.99,,2013-07-23 10:44:00,
2013-07-23 04:52:00,64.0,-99.9,-100.00,SSW,206,8.0,9.0,-999,-99.99,,,-99.99,,2013-07-23 10:52:00,
2013-07-23 05:00:00,62.0,-99.9,-100.00,SW,227,8.0,10.0,-999,-99.99,,,-99.99,,2013-07-23 11:00:00,
2013-07-23 05:22:00,62.0,-99.9,-100.00,SW,227,8.0,10.0,-999,-99.99,,,-99.99,,2013-07-23 11:22:00,
2013-07-23 05:32:00,62.0,-99.9,-100.00,SW,227,8.0,10.0,-999,-99.99,,,-99.99,,2013-07-23 11:32:00,
2013-07-23 05:43:00,62.0,-99.9,-100.00,SW,227,8.0,10.0,-999,-99.99,,,-99.99,,2013-07-23 11:43:00,
2013-07-23 05:52:00,62.0,-99.9,-100.00,SW,227,8.0,10.0,-999,-99.99,,,-99.99,,2013-07-23 11:52:00,
2013-07-23 06:00:00,60.0,-99.9,-100.00,SW,230,9.0,11.0,-999,-99.99,,,-99.99,,2013-07-23 12:00:00,
2013-07-23 06:22:00,60.0,-99.9,-100.00,SW,230,9.0,11.0,-999,-99.99,,,-99.99,,2013-07-23 12:22:00,
2013-07-23 06:33:00,60.0,-99.9,-100.00,SW,230,9.0,11.0,-999,-99.99,,,-99.99,,2013-07-23 12:33:00,
2013-07-23 06:43:00,60.0,-99.9,-100.00,SW,230,9.0,11.0,-999,-99.99,,,-99.99,,2013-07-23 12:43:00,
2013-07-23 07:00:00,66.0,-99.9,-100.00,SW,234,8.0,10.0,-999,-99.99,,,-99.99,,2013-07-23 13:00:00,
2013-07-23 07:22:00,66.0,-99.9,-100.00,SW,234,8.0,10.0,-999,-99.99,,,-99.99,,2013-07-23 13:22:00,
2013-07-23 07:32:00,66.0,-99.9,-100.00,SW,234,8.0,10.0,-999,-99.99,,,-99.99,,2013-07-23 13:32:00,
2013-07-23 07:43:00,66.0,-99.9,-100.00,SW,234,8.0,10.0,-999,-99.99,,,-99.99,,2013-07-23 13:43:00,
2013-07-23 07:53:00,66.0,-99.9,-100.00,SW,234,8.0,10.0,-999,-99.99,,,-99.99,,2013-07-23 13:53:00,
2013-07-23 08:00:00,71.0,-99.9,-100.00,North,7,4.0,5.0,-999,-99.99,,,-99.99,,2013-07-23 14:00:00,
2013-07-23 08:44:00,71.0,-99.9,-100.00,North,7,4.0,5.0,-999,-99.99,,,-99.99,,2013-07-23 14:44:00,
2013-07-23 08:54:00,71.0,-99.9,-100.00,North,7,4.0,5.0,-999,-99.99,,,-99.99,,2013-07-23 14:54:00,
2013-07-23 09:00:00,73.0,-99.9,-100.00,NNE,13,5.0,7.0,-999,-99.99,,,-99.99,,2013-07-23 15:00:00,
2013-07-23 09:24:00,73.0,-99.9,-100.00,NNE,13,5.0,7.0,-999,-99.99,,,-99.99,,2013-07-23 15:24:00,
2013-07-23 09:32:00,73.0,-99.9,-100.00,NNE,13,5.0,7.0,-999,-99.99,,,-99.99,,2013-07-23 15:32:00,
2013-07-23 09:43:00,73.0,-99.9,-100.00,NNE,13,5.0,7.0,-999,-99.99,,,-99.99,,2013-07-23 15:43:00,
2013-07-23 09:52:00,73.0,-99.9,-100.00,NNE,13,5.0,7.0,-999,-99.99,,,-99.99,,2013-07-23 15:52:00,
2013-07-23 10:00:00,77.0,-99.9,-100.00,NNW,344,6.0,8.0,-999,-99.99,,,-99.99,,2013-07-23 16:00:00,
2013-07-23 10:22:00,77.0,-99.9,-100.00,NNW,344,6.0,8.0,-999,-99.99,,,-99.99,,2013-07-23 16:22:00,
2013-07-23 10:33:00,77.0,-99.9,-100.00,NNW,344,6.0,8.0,-999,-99.99,,,-99.99,,2013-07-23 16:33:00,
2013-07-23 10:43:00,77.0,-99.9,-100.00,NNW,344,6.0,8.0,-999,-99.99,,,-99.99,,2013-07-23 16:43:00,
2013-07-23 10:52:00,77.0,-99.9,-100.00,NNW,344,6.0,8.0,-999,-99.99,,,-99.99,,2013-07-23 16:52:00,
2013-07-23 11:00:00,82.0,-99.9,-100.00,NE,34,6.0,8.0,-999,-99.99,,,-99.99,,2013-07-23 17:00:00,
2013-07-23 11:22:00,82.0,-99.9,-100.00,NE,34,6.0,8.0,-999,-99.99,,,-99.99,,2013-07-23 17:22:00,
2013-07-23 11:33:00,82.0,-99.9,-100.00,NE,34,6.0,8.0,-999,-99.99,,,-99.99,,2013-07-23 17:33:00,
2013-07-23 11:42:00,82.0,-99.9,-100.00,NE,34,6.0,8.0,-999,-99.99,,,-99.99,,2013-07-23 17:42:00,
2013-07-23 11:57:00,82.0,-99.9,-100.00,NE,34,6.0,8.0,-999,-99.99,,,-99.99,,2013-07-23 17:57:00,
2013-07-23 12:00:00,84.0,-99.9,-100.00,NE,50,8.0,11.0,-999,-99.99,,,-99.99,,2013-07-23 18:00:00,
2013-07-23 12:26:00,84.0,-99.9,-100.00,NE,50,8.0,11.0,-999,-99.99,,,-99.99,,2013-07-23 18:26:00,
2013-07-23 12:37:00,84.0,-99.9,-100.00,NE,50,8.0,11.0,-999,-99.99,,,-99.99,,2013-07-23 18:37:00,
2013-07-23 12:49:00,84.0,-99.9,-100.00,NE,50,8.0,11.0,-999,-99.99,,,-99.99,,2013-07-23 18:49:00,
2013-07-23 13:00:00,87.0,-99.9,-100.00,NE,34,7.0,10.0,-999,-99.99,,,-99.99,,2013-07-23 19:00:00,
2013-07-23 13:28:00,87.0,-99.9,-100.00,NE,34,7.0,10.0,-999,-99.99,,,-99.99,,2013-07-23 19:28:00,
2013-07-23 13:57:00,87.0,-99.9,-100.00,NE,34,7.0,10.0,-999,-99.99,,,-99.99,,2013-07-23 19:57:00,
2013-07-23 14:00:00,89.0,-99.9,-100.00,SSW,196,2.0,5.0,-999,-99.99,,,-99.99,,2013-07-23 20:00:00,
2013-07-23 14:25:00,89.0,-99.9,-100.00,SSW,196,2.0,5.0,-999,-99.99,,,-99.99,,2013-07-23 20:25:00,
2013-07-23 14:35:00,89.0,-99.9,-100.00,SSW,196,2.0,5.0,-999,-99.99,,,-99.99,,2013-07-23 20:35:00,
2013-07-23 14:48:00,89.0,-99.9,-100.00,SSW,196,2.0,5.0,-999,-99.99,,,-99.99,,2013-07-23 20:48:00,
2013-07-23 15:00:00,90.0,-99.9,-100.00,NW,316,3.0,7.0,-999,-99.99,,,-99.99,,2013-07-23 21:00:00,
2013-07-23 15:25:00,90.0,-99.9,-100.00,NW,316,3.0,7.0,-999,-99.99,,,-99.99,,2013-07-23 21:25:00,
2013-07-23 15:39:00,90.0,-99.9,-100.00,NW,316,3.0,7.0,-999,-99.99,,,-99.99,,2013-07-23 21:39:00,
2013-07-23 15:48:00,90.0,-99.9,-100.00,NW,316,3.0,7.0,-999,-99.99,,,-99.99,,2013-07-23 21:48:00,
2013-07-23 16:00:00,89.0,-99.9,-100.00,NNE,31,9.0,12.0,-999,-99.99,,,-99.99,,2013-07-23 22:00:00,
2013-07-23 16:24:00,89.0,-99.9,-100.00,NNE,31,9.0,12.0,-999,-99.99,,,-99.99,,2013-07-23 22:24:00,
2013-07-23 16:37:00,89.0,-99.9,-100.00,NNE,31,9.0,12.0,-999,-99.99,,,-99.99,,2013-07-23 22:37:00,
2013-07-23 16:48:00,89.0,-99.9,-100.00,NNE,31,9.0,12.0,-999,-99.99,,,-99.99,,2013-07-23 22:48:00,
2013-07-23 17:00:00,92.0,-99.9,-100.00,NNW,330,2.0,5.0,-999,-99.99,,,-99.99,,2013-07-23 23:00:00,
2013-07-23 17:38:00,92.0,-99.9,-100.00,NNW,330,2.0,5.0,-999,-99.99,,,-99.99,,2013-07-23 23:38:00,
2013-07-23 17:48:00,92.0,-99.9,-100.00,NNW,330,2.0,5.0,-999,-99.99,,,-99.99,,2013-07-23 23:48:00,
2013-07-23 18:26:00,91.0,-99.9,-100.00,NE,43,9.0,12.0,-999,-99.99,,,-99.99,,2013-07-24 00:26:00,
2013-07-23 18:34:00,91.0,-99.9,-100.00,NE,43,9.0,12.0,-999,-99.99,,,-99.99,,2013-07-24 00:34:00,
2013-07-23 18:59:00,91.0,-99.9,-100.00,NE,43,9.0,12.0,-999,-99.99,,,-99.99,,2013-07-24 00:59:00,
2013-07-23 19:00:00,88.0,-99.9,-100.00,NNE,31,8.0,9.0,-999,-99.99,,,-99.99,,2013-07-24 01:00:00,
2013-07-23 19:25:00,88.0,-99.9,-100.00,NNE,31,8.0,9.0,-999,-99.99,,,-99.99,,2013-07-24 01:25:00,
2013-07-23 19:49:00,88.0,-99.9,-100.00,NNE,31,8.0,9.0,-999,-99.99,,,-99.99,,2013-07-24 01:49:00,
2013-07-23 20:00:00,85.0,-99.9,-100.00,NNE,22,11.0,13.0,-999,-99.99,,,-99.99,,2013-07-24 02:00:00,
2013-07-23 20:40:00,85.0,-99.9,-100.00,NNE,22,11.0,13.0,-999,-99.99,,,-99.99,,2013-07-24 02:40:00,
2013-07-23 20:49:00,85.0,-99.9,-100.00,NNE,22,11.0,13.0,-999,-99.99,,,-99.99,,2013-07-24 02:49:00,
2013-07-23 20:58:00,85.0,-99.9,-100.00,NNE,22,11.0,13.0,-999,-99.99,,,-99.99,,2013-07-24 02:58:00,
2013-07-23 21:00:00,80.0,-99.9,-100.00,North,1,12.0,15.0,-999,-99.99,,,-99.99,,2013-07-24 03:00:00,
2013-07-23 21:25:00,80.0,-99.9,-100.00,North,1,12.0,15.0,-999,-99.99,,,-99.99,,2013-07-24 03:25:00,
2013-07-23 21:40:00,80.0,-99.9,-100.00,North,1,12.0,15.0,-999,-99.99,,,-99.99,,2013-07-24 03:40:00,
2013-07-23 21:47:00,80.0,-99.9,-100.00,North,1,12.0,15.0,-999,-99.99,,,-99.99,,2013-07-24 03:47:00,
2013-07-23 21:59:00,80.0,-99.9,-100.00,North,1,12.0,15.0,-999,-99.99,,,-99.99,,2013-07-24 03:59:00,
2013-07-23 22:00:00,77.0,-99.9,-100.00,North,11,12.0,15.0,-999,-99.99,,,-99.99,,2013-07-24 04:00:00,
2013-07-23 22:22:00,77.0,-99.9,-100.00,North,11,12.0,15.0,-999,-99.99,,,-99.99,,2013-07-24 04:22:00,
2013-07-23 22:32:00,77.0,-99.9,-100.00,North,11,12.0,15.0,-999,-99.99,,,-99.99,,2013-07-24 04:32:00,
2013-07-23 22:44:00,77.0,-99.9,-100.00,North,11,12.0,15.0,-999,-99.99,,,-99.99,,2013-07-24 04:44:00,
2013-07-23 22:53:00,77.0,-99.9,-100.00,North,11,12.0,15.0,-999,-99.99,,,-99.99,,2013-07-24 04:53:00,
2013-07-23 23:00:00,74.0,-99.9,-100.00,NNE,19,6.0,7.0,-999,-99.99,,,-99.99,,2013-07-24 05:00:00,
2013-07-23 23:22:00,74.0,-99.9,-100.00,NNE,19,6.0,7.0,-999,-99.99,,,-99.99,,2013-07-24 05:22:00,
2013-07-23 23:33:00,74.0,-99.9,-100.00,NNE,19,6.0,7.0,-999,-99.99,,,-99.99,,2013-07-24 05:33:00,
2013-07-23 23:43:00,74.0,-99.9,-100.00,NNE,19,6.0,7.0,-999,-99.99,,,-99.99,,2013-07-24 05:43:00,
2013-07-23 23:52:00,74.0,-99.9,-100.00,NNE,19,6.0,7.0,-999,-99.99,,,-99.99,,2013-07-24 05:52:00,